Wind_Speed
41 41 41 40 40 40 40 40 39 39 39 40 40 40 40 40 41 41 41 41 41 41 41 41 41 41 41 41 41 41 41 41 40 38 39 40 42 44 44 43 42 41 40
41 41 41 41 41 41 41 40 39 39 40 40 39 40 41 41 42 43 43 43 43 43 43 43 43 43 44 43 43 43 44 44 41 40 40 41 43 45 45 45 44 44 42
42 42 42 42 41 41 40 40 40 40 39 40 40 41 41 41 42 43 44 44 44 44 45 46 46 46 47 47 46 46 46 46 45 43 42 43 44 46 47 47 47 46 45
43 43 43 42 42 41 40 40 40 40 39 40 40 40 41 41 42 43 44 45 45 45 46 47 48 49 49 50 50 50 50 49 48 47 44 44 45 47 48 48 49 48 47
44 44 44 43 42 41 40 40 40 40 40 39 39 39 39 39 40 41 43 44 45 46 47 48 49 50 51 52 53 54 54 53 51 50 48 47 46 48 48 49 50 50 49
45 45 45 44 42 41 40 40 40 40 39 39 38 37 37 38 40 41 43 43 44 45 46 47 48 50 51 53 55 57 58 57 55 53 52 50 48 48 50 50 52 51 50
46 46 46 44 42 41 40 40 40 39 38 37 37 37 38 39 40 40 40 40 40 41 43 44 46 49 51 53 56 58 60 60 59 57 55 52 50 50 51 52 52 52 51
47 47 46 45 43 41 40 40 39 38 37 37 37 37 37 37 37 37 37 37 36 37 38 40 43 46 49 52 55 59 60 61 61 60 58 56 53 51 50 51 53 53 53
47 47 46 44 42 41 40 39 39 38 37 37 37 37 36 35 35 35 35 34 33 33 35 37 40 43 46 50 54 57 60 62 63 63 61 60 57 54 52 53 54 55 55
47 47 46 44 43 41 40 39 39 38 37 37 37 36 35 33 32 32 32 31 29 29 31 34 37 40 44 47 52 56 58 60 63 63 63 61 59 56 54 53 52 53 54
47 47 46 44 43 42 41 40 39 38 37 36 35 34 32 31 31 31 29 27 26 27 28 30 32 36 40 44 48 53 56 59 62 63 63 63 60 58 56 54 53 52 53
46 46 46 44 43 42 41 40 39 38 37 35 33 33 32 32 30 29 26 24 23 23 23 24 27 31 36 40 45 49 54 57 60 63 64 63 61 59 57 55 53 52 52
46 46 45 44 43 42 41 40 38 36 36 35 33 32 31 30 28 25 23 20 19 17 15 17 21 26 31 36 41 46 50 54 57 61 63 62 61 59 58 58 55 54 53
45 45 45 44 42 42 41 38 36 36 35 35 33 32 30 27 25 23 20 17 14 11 10 13 17 21 26 32 38 43 47 51 54 57 60 61 60 60 58 57 56 54 53
45 45 44 43 42 41 40 38 36 36 36 35 33 31 28 25 23 21 17 14 11 9 8 10 13 17 22 28 34 39 44 48 52 54 57 59 59 60 57 56 55 54 52
45 44 43 42 41 40 38 37 36 36 36 35 32 30 26 24 22 19 16 11 8 6 6 9 13 17 20 25 30 35 40 45 48 51 54 56 58 58 57 54 52 54 53
45 44 43 41 40 39 37 36 35 35 35 35 32 29 25 22 20 16 13 10 6 4 5 8 13 17 20 23 27 32 36 40 44 48 51 54 56 57 56 55 53 53 51
44 43 42 40 39 38 36 35 34 34 34 33 30 27 24 21 17 14 11 8 4 2 5 8 11 15 19 22 26 29 33 36 40 45 48 51 53 55 55 54 53 53 52
43 42 40 39 37 36 35 34 33 33 33 31 28 26 23 20 16 13 10 6 2 1 4 8 11 14 18 20 23 27 30 33 36 41 45 48 49 52 53 53 53 52 51
42 40 38 37 36 35 34 33 31 31 31 30 28 25 22 19 16 13 10 6 2 1 4 7 11 14 16 19 21 24 26 30 34 38 42 45 48 49 51 53 53 52 50
40 38 37 36 34 33 32 30 29 28 28 28 26 24 21 18 16 13 10 7 3 2 5 7 10 12 14 17 19 21 24 28 31 35 39 43 46 47 49 50 50 50 50
38 36 35 34 32 30 29 28 27 26 26 26 25 23 20 17 16 14 11 8 3 2 5 7 9 10 13 15 17 19 22 25 28 32 36 40 43 45 47 48 48 48 48
36 34 33 31 29 28 27 26 25 24 24 24 23 22 20 17 15 14 12 9 5 2 4 7 8 9 12 15 17 18 20 22 25 29 33 36 39 42 45 46 46 46 46
34 32 31 29 27 26 24 23 22 21 21 22 22 20 19 17 15 14 13 9 5 2 3 6 7 9 11 13 16 18 19 21 23 26 30 34 36 39 42 45 46 45 45
32 30 28 27 25 24 22 21 20 19 19 19 20 19 18 16 15 14 12 10 6 3 2 4 6 9 12 14 15 17 19 21 22 25 28 30 33 36 40 41 42 43 44
30 28 26 25 23 21 20 18 17 17 17 17 17 17 17 16 15 14 12 9 7 4 2 3 5 8 11 14 16 17 18 20 21 23 25 28 31 34 37 39 41 41 43
Wind_Direction
322 321 319 317 314 311 308 305 302 300 297 293 290 287 284 281 279 276 274 270 266 262 259 255 251 246 243 240 237 233 229 226 224 220 219 218 216 214 213 213 210 209 207
325 324 322 320 317 314 311 308 304 302 298 295 291 288 285 283 280 278 275 271 268 263 259 255 251 246 242 239 236 233 229 225 223 221 218 216 213 212 212 212 210 210 208
327 326 324 322 319 316 313 309 307 304 300 297 294 291 288 285 282 279 276 272 268 264 260 255 251 247 242 239 235 232 229 226 223 221 219 217 214 212 211 211 211 210 208
329 328 326 324 321 318 315 311 309 306 302 299 297 295 291 287 284 281 278 274 270 265 261 256 251 247 243 238 234 231 229 225 223 220 218 216 215 212 211 211 210 209 209
331 330 328 326 323 320 317 314 311 308 305 303 301 297 293 290 287 284 280 276 271 266 262 257 251 246 242 237 233 230 228 224 222 220 218 217 214 214 211 211 210 209 209
332 331 330 328 325 321 318 316 314 311 309 306 304 299 296 294 291 288 283 279 273 268 262 257 251 245 240 236 231 228 226 225 222 220 217 217 215 213 211 210 209 209 209
332 332 331 329 326 323 320 318 316 314 312 309 306 302 299 297 294 290 286 281 275 269 263 256 249 242 237 233 229 227 225 223 222 219 217 216 215 213 211 210 208 208 209
333 333 332 330 328 325 323 321 319 318 314 311 308 305 303 299 296 293 289 284 279 270 262 255 248 241 236 232 228 224 222 221 219 218 217 214 213 212 212 210 207 207 209
334 334 333 332 330 327 325 323 322 321 317 314 311 308 306 303 300 296 293 288 281 273 264 256 248 239 234 230 226 222 221 219 216 215 215 214 213 214 214 211 208 208 208
334 335 334 333 331 330 328 326 325 323 320 317 314 312 309 307 304 301 296 290 282 274 267 257 247 238 232 228 224 220 219 216 215 214 212 212 213 213 214 211 208 208 209
335 336 336 334 333 332 331 329 327 325 323 321 319 316 314 311 308 305 300 292 284 278 269 257 245 237 230 224 221 218 216 215 214 212 211 211 211 211 212 213 209 207 209
335 336 337 335 334 334 333 332 330 329 328 326 322 319 316 315 312 308 302 296 291 283 269 253 240 232 225 220 217 214 213 213 213 212 210 209 209 209 209 210 209 208 209
336 337 337 336 336 336 335 335 334 333 333 330 327 323 320 318 316 313 307 301 297 287 267 248 234 224 217 215 213 211 210 210 211 210 209 209 208 208 209 209 209 208 208
337 337 338 337 337 337 338 337 337 336 336 335 332 328 325 324 322 319 312 306 299 288 262 236 222 217 214 210 207 207 207 207 207 208 209 208 207 207 207 208 208 207 208
337 338 338 338 338 338 339 339 338 339 339 338 336 333 330 328 326 324 318 310 300 285 254 229 216 208 204 203 202 203 203 203 204 205 206 206 206 206 207 208 209 207 206
336 337 338 338 338 339 340 340 340 341 341 341 340 338 335 332 331 329 325 316 298 279 243 215 200 193 195 196 197 197 198 200 202 203 204 205 205 206 205 205 206 208 209
335 336 337 338 338 340 341 341 343 344 344 344 344 343 341 337 335 334 333 327 308 261 216 197 193 190 191 192 193 193 194 197 199 202 202 203 204 205 204 204 204 205 207
333 334 336 337 339 340 341 343 344 346 347 348 349 350 348 346 342 340 339 340 337 225 193 189 191 191 190 190 191 193 193 195 197 199 200 201 202 202 202 204 204 205 207
331 333 335 336 338 340 341 343 346 348 350 352 353 354 354 353 352 351 350 350 354 199 190 187 185 185 186 188 189 190 193 195 196 197 197 198 200 200 202 203 203 204 205
329 331 333 335 337 339 341 344 347 349 352 354 356 358 359 2 3 3 3 6 14 136 165 173 177 181 184 185 187 189 192 192 194 195 195 196 197 197 199 200 202 203 205
327 329 332 333 335 338 340 344 347 350 354 357 358 1 4 8 11 13 12 16 31 134 153 161 170 176 180 183 187 191 191 191 193 195 195 194 195 196 198 199 201 203 204
324 327 330 332 334 336 339 343 348 351 355 359 2 4 6 10 13 17 20 22 39 138 162 166 171 178 181 183 186 188 188 189 192 194 195 196 197 198 198 200 202 205 204
322 325 328 330 332 334 338 343 348 353 358 2 6 8 10 12 15 18 21 26 45 112 157 170 174 179 183 186 185 187 188 189 192 195 195 195 196 197 198 199 201 203 203
319 322 325 328 329 332 336 341 346 350 356 3 6 9 11 15 18 19 19 22 35 84 149 171 182 186 185 185 186 189 191 192 193 194 194 195 196 196 196 198 200 202 203
316 319 322 325 327 329 333 338 344 349 353 359 4 7 9 12 14 15 16 20 28 61 135 169 183 188 191 191 191 191 191 191 191 192 193 196 198 196 196 197 199 201 203
314 316 319 322 325 327 331 336 340 345 351 356 1 5 7 10 11 14 17 20 26 40 90 160 177 186 192 195 193 191 191 192 193 195 195 196 198 199 198 199 201 203 204
Height
5764 5757 5751 5744 5738 5731 5725 5720 5715 5710 5706 5702 5698 5695 5692 5690 5688 5687 5687 5688 5689 5691 5693 5696 5699 5703 5707 5711 5716 5721 5726 5731 5738 5743 5749 5754 5760 5767 5773 5780 5787 5793 5800
5756 5749 5742 5735 5728 5722 5715 5709 5704 5699 5694 5690 5686 5682 5679 5677 5674 5673 5672 5673 5673 5675 5677 5681 5685 5688 5694 5699 5704 5709 5714 5720 5726 5733 5739 5744 5751 5757 5765 5772 5779 5786 5793
5748 5741 5734 5726 5719 5712 5705 5699 5693 5687 5682 5677 5673 5669 5666 5663 5660 5658 5657 5657 5658 5659 5661 5664 5668 5673 5678 5684 5690 5696 5702 5708 5715 5722 5728 5734 5741 5747 5755 5763 5770 5778 5785
5741 5733 5725 5718 5710 5702 5695 5689 5682 5676 5671 5665 5660 5656 5652 5648 5645 5643 5641 5640 5641 5642 5644 5647 5651 5656 5661 5668 5675 5682 5689 5696 5703 5711 5717 5724 5730 5737 5745 5753 5762 5770 5778
5733 5725 5717 5709 5701 5693 5686 5679 5672 5665 5659 5653 5648 5643 5638 5634 5631 5628 5625 5624 5623 5624 5626 5629 5632 5637 5643 5650 5658 5666 5674 5682 5690 5698 5706 5712 5719 5727 5736 5744 5753 5761 5769
5726 5717 5709 5700 5692 5684 5676 5669 5662 5655 5648 5642 5636 5630 5626 5621 5617 5613 5609 5607 5606 5606 5607 5609 5613 5619 5625 5632 5640 5648 5658 5667 5676 5685 5693 5702 5710 5718 5726 5734 5743 5752 5761
5718 5709 5701 5692 5684 5675 5667 5660 5652 5645 5637 5631 5625 5619 5613 5608 5603 5598 5594 5591 5589 5588 5589 5591 5594 5600 5606 5613 5622 5631 5641 5651 5662 5672 5681 5691 5699 5707 5716 5724 5733 5742 5751
5711 5702 5693 5684 5675 5667 5658 5650 5642 5635 5627 5620 5614 5607 5601 5595 5589 5584 5579 5576 5573 5572 5572 5573 5577 5582 5588 5596 5604 5614 5624 5635 5647 5659 5670 5679 5687 5696 5704 5714 5722 5731 5741
5703 5694 5685 5676 5667 5659 5650 5641 5633 5625 5618 5610 5603 5596 5590 5583 5577 5571 5566 5562 5559 5557 5557 5558 5561 5566 5572 5579 5588 5599 5609 5620 5630 5643 5654 5665 5675 5684 5693 5702 5711 5722 5731
5696 5687 5677 5668 5659 5651 5642 5633 5624 5616 5608 5600 5592 5585 5578 5572 5566 5560 5554 5550 5547 5545 5544 5544 5546 5551 5556 5563 5573 5583 5594 5605 5616 5628 5640 5652 5663 5673 5683 5692 5703 5713 5723
5689 5679 5670 5660 5652 5643 5634 5624 5616 5607 5599 5591 5583 5575 5569 5563 5556 5550 5544 5540 5536 5534 5532 5531 5533 5537 5542 5550 5559 5570 5580 5591 5602 5614 5626 5639 5650 5662 5673 5683 5694 5704 5715
5682 5672 5663 5653 5644 5635 5626 5617 5608 5599 5590 5582 5574 5567 5560 5554 5547 5541 5535 5531 5527 5523 5521 5520 5522 5525 5531 5538 5548 5558 5568 5578 5590 5602 5615 5627 5640 5652 5663 5674 5684 5695 5704
5675 5666 5656 5646 5637 5628 5619 5610 5601 5592 5583 5575 5567 5560 5552 5545 5539 5533 5528 5524 5519 5516 5513 5513 5514 5518 5523 5530 5538 5547 5557 5568 5579 5591 5605 5617 5629 5641 5652 5663 5674 5684 5694
5669 5660 5650 5641 5631 5622 5613 5603 5595 5586 5577 5569 5560 5553 5545 5539 5533 5527 5522 5518 5515 5512 5510 5510 5511 5513 5518 5524 5531 5540 5549 5560 5571 5582 5594 5606 5618 5631 5642 5654 5665 5675 5684
5663 5654 5644 5635 5626 5617 5607 5598 5590 5581 5571 5563 5555 5547 5540 5534 5528 5522 5518 5514 5511 5509 5508 5508 5509 5511 5514 5519 5526 5534 5543 5553 5563 5574 5586 5598 5610 5622 5634 5645 5656 5666 5676
5657 5648 5639 5630 5621 5612 5604 5594 5585 5576 5567 5558 5550 5542 5535 5529 5524 5519 5515 5511 5509 5508 5507 5507 5508 5510 5513 5517 5523 5531 5539 5548 5557 5568 5579 5590 5602 5614 5626 5637 5647 5658 5668
5652 5643 5634 5625 5617 5608 5600 5591 5583 5574 5564 5555 5547 5539 5532 5526 5521 5517 5513 5510 5508 5507 5507 5507 5509 5511 5514 5518 5523 5529 5537 5545 5553 5563 5573 5584 5595 5607 5618 5629 5640 5650 5660
5645 5637 5629 5621 5613 5605 5596 5588 5580 5571 5563 5554 5545 5537 5530 5525 5520 5516 5512 5510 5508 5507 5507 5508 5510 5512 5515 5519 5524 5529 5536 5543 5551 5559 5569 5579 5589 5600 5611 5622 5633 5643 5653
5640 5632 5624 5616 5609 5601 5593 5585 5577 5569 5560 5552 5544 5537 5530 5525 5520 5516 5513 5511 5509 5509 5509 5510 5511 5514 5517 5520 5525 5530 5535 5542 5548 5556 5565 5575 5584 5595 5605 5615 5626 5636 5645
5634 5627 5619 5612 5605 5598 5590 5583 5575 5568 5560 5552 5545 5538 5532 5526 5521 5518 5515 5512 5511 5510 5510 5511 5513 5516 5518 5522 5526 5531 5535 5541 5547 5554 5562 5571 5580 5589 5599 5609 5619 5629 5638
5628 5621 5615 5608 5601 5595 5588 5581 5574 5567 5560 5552 5546 5539 5533 5528 5524 5520 5517 5515 5513 5513 5513 5514 5515 5518 5520 5523 5527 5531 5535 5540 5546 5553 5560 5567 5575 5584 5593 5603 5612 5622 5631
5623 5616 5610 5604 5598 5592 5585 5579 5573 5566 5560 5553 5547 5541 5535 5530 5526 5522 5519 5517 5515 5515 5515 5516 5517 5519 5522 5524 5528 5531 5536 5540 5546 5551 5558 5565 5572 5580 5588 5598 5607 5615 5624
5617 5611 5605 5600 5594 5589 5583 5577 5572 5566 5560 5554 5548 5543 5537 5533 5529 5525 5522 5519 5518 5517 5517 5518 5519 5521 5523 5525 5528 5532 5536 5540 5545 5550 5556 5563 5570 5577 5585 5593 5602 5611 5619
5611 5606 5601 5596 5591 5586 5581 5576 5570 5565 5560 5555 5550 5544 5540 5535 5531 5528 5524 5522 5520 5519 5519 5519 5520 5522 5524 5526 5529 5532 5536 5540 5544 5549 5555 5561 5568 5575 5582 5590 5598 5606 5614
5605 5600 5596 5592 5587 5583 5578 5574 5569 5565 5560 5556 5551 5546 5541 5537 5534 5530 5527 5524 5522 5521 5520 5520 5521 5522 5524 5526 5529 5532 5536 5540 5544 5549 5554 5560 5566 5572 5579 5586 5594 5601 5608
5598 5595 5591 5587 5583 5579 5576 5572 5568 5564 5560 5556 5552 5547 5543 5539 5536 5532 5529 5526 5524 5522 5521 5521 5522 5522 5524 5526 5529 5532 5536 5539 5543 5548 5553 5558 5564 5570 5576 5583 5590 5596 5603